Regional Weather Roundup
Issued by NWS

Home | Current Version | Previous Version | Text Only | Print | Product List | Glossary Off
Versions: 1 2 3 4 5 6 7 8 9 10 11 12 13 14 15 16 17 18 19 20 21 22 23 24 25 26 27 28 29 30 31 32 33 34 35 36 37 38 39 40 41 42 43 44 45 46 47 48 49 50

000
ASUS43 KIND 051959
RWRIN

WEATHER ROUNDUP FOR INDIANA
NATIONAL WEATHER SERVICE INDIANAPOLIS IN
400 PM EDT TUE MAY 05 2015

NOTE: "FAIR" INDICATES FEW OR NO CLOUDS BELOW 12,000 FEET WITH NO
SIGNIFICANT WEATHER AND/OR OBSTRUCTIONS TO VISIBILITY.

* - STATION DOES NOT REPORT WEATHER SUCH AS PRECIPITATION OR FOG.

+ - STATION NOT QUALITY CONTROLLED BY THE NATIONAL WEATHER SERVICE.
    USE DATA WITH CAUTION...ESPECIALLY DEWPOINT AND RELATIVE
    HUMIDITY OBSERVATIONS.

INZ001>003-010>013-019-020-052100-
NORTHWEST INDIANA

CITY           SKY/WX    TMP DP  RH WIND       PRES   REMARKS
GARY /AIRPORT/ FOG       52 N/A N/A N6        30.22F VSB 1/4

$$

LMZ046-743>745-052100-
SOUTHERN LAKE MICHIGAN

STATION/POSITION TIME  TEMP    WIND        PRES    WAVE
                       AIR SEA DIR/SP/G            HT
                 (UTC) (F)     (DEG/KT/KT) (MB)    (FT)
BURNS HARBOR     1900   50     350/  4/  5 1023.7S
MICHIGAN CITY    1900   53      20/  8/  9   N/A
5NW MICH CITY    1900   51 49   50/  8/ 10   N/A     2

$$

INZ004-005-014>016-021>024-052100-
NORTH CENTRAL INDIANA

CITY           SKY/WX    TMP DP  RH WIND       PRES   REMARKS
ELKHART        CLOUDY    59  57  94 NE7       30.23F FOG
GOSHEN         LGT RAIN  68  64  87 NE12      30.20F FOG
SOUTH BEND     CLOUDY    62  59  90 NE9       30.22S FOG

$$

INZ006>009-017-018-025>027-052100-
NORTHEAST INDIANA

CITY           SKY/WX    TMP DP  RH WIND       PRES   REMARKS
ANGOLA *+      CLOUDY    59  48  67 E6        30.24S
FORT WAYNE     PTSUNNY   78  60  53 SW9       30.19F

$$

INZ028-029-035-036-043>045-051>053-052100-
WEST CENTRAL INDIANA

CITY           SKY/WX    TMP DP  RH WIND       PRES   REMARKS
CRAWFORDSVL +  MOSUNNY   82  41  23 SW14      30.17F
GREENCASTLE +  SUNNY     81  45  28 SW5       30.19S
LAFAYETTE      MOSUNNY   81  54  39 W12G18    30.15F
TERRE HAUTE    MOSUNNY   84  52  33 SW15G23   30.17F

$$

INZ030>032-037>040-046>048-054>057-064-065-052100-
CENTRAL INDIANA

CITY           SKY/WX    TMP DP  RH WIND       PRES   REMARKS
ANDERSON       PTSUNNY   82  41  23 W9        30.21F
GREENWOOD *+   MOSUNNY   82  50  32 SW9       30.20F
INDIANAPOLIS   MOSUNNY   80  54  40 SW9       30.17F
-EAGLE CREEK   PTSUNNY   82  53  36 SW7       30.17F
KOKOMO *+      MOSUNNY   81  57  44 SW13G21   30.18F
MT COMFORT *+  SUNNY     84  32  15 SW12      30.20S
SHELBYVILLE    CLOUDY    82  53  36 SW10      30.19F

$$

INZ033-034-041-042-049-050-058-059-052100-
EAST CENTRAL INDIANA

CITY           SKY/WX    TMP DP  RH WIND       PRES   REMARKS
MUNCIE         MOSUNNY   80  54  40 SW8       30.19F

$$

INZ060-061-067>069-081>083-085>088-052100-
SOUTHWEST INDIANA

CITY           SKY/WX    TMP DP  RH WIND       PRES   REMARKS
EVANSVILLE     PTSUNNY   83  54  36 SW9       30.20F
HUNTINGBURG *+ MOSUNNY   82  55  39 SW8       30.21F

$$

INZ062-063-066-070>080-084-089>092-052100-
SOUTH CENTRAL AND SOUTHEAST INDIANA

CITY           SKY/WX    TMP DP  RH WIND       PRES   REMARKS
BLOOMINGTON    PTSUNNY   82  51  34 SW9       30.20F
MADISON *+     MOSUNNY   82  45  26 W3        30.23F
SEYMOUR +      MOSUNNY   84  55  37 S10G17    30.20F

$$




USA.gov is the U.S. government's official web portal to all federal, state and local government web resources and services.